Terminal Aerodrome Forecast
Issued by NWS Duluth, MN

Home | Current Version | Previous Version | Text Only | Print | Product List | Glossary On
Versions: 1 2 3 4 5 6 7 8 9 10 11 12 13 14 15 16 17 18 19 20 21 22 23 24 25 26 27 28
890
FTUS43 KDLH 181414 AAC
TAFDLH
TAF AMD
KDLH 181414Z 1814/1912 33007KT P6SM SCT005
     FM181500 32006KT P6SM BKN050
     FM190100 28004KT P6SM SCT140=

USA.gov is the U.S. government's official web portal to all federal, state and local government web resources and services.